| time (UTC) | temp F | wind direction | speed MPH | gust MPH | rain 1hr in | rain 24hr in | rain mn in | humidity % | barometer mb |
| 20260509150058 | 46 | 29 | 0.0 | 0.0 | 0.02 | 0.21 | 0.21 | 15 | 1008.6 |
| 20260509144604 | 46 | 31 | 0.0 | 0.0 | 0.03 | 0.21 | 0.21 | 16 | 1008.8 |
| 20260509143055 | 45 | 355 | 1.0 | 2.0 | 0.03 | 0.20 | 0.20 | 17 | 1008.9 |
| 20260509141555 | 44 | 28 | 0.0 | 2.0 | 0.03 | 0.19 | 0.19 | 18 | 1008.8 |
| 20260509140054 | 44 | 355 | 0.0 | 2.0 | 0.04 | 0.19 | 0.19 | 19 | 1008.8 |
| 20260509134554 | 43 | 5 | 1.0 | 3.0 | 0.05 | 0.18 | 0.18 | 21 | 1008.8 |
| 20260509133051 | 43 | 341 | 0.0 | 2.0 | 0.06 | 0.17 | 0.17 | 21 | 1008.9 |
| 20260509131551 | 44 | 5 | 0.0 | 2.0 | 0.06 | 0.16 | 0.16 | 20 | 1008.7 |
| 20260509130100 | 43 | 346 | 1.0 | 2.0 | 0.06 | 0.15 | 0.15 | 21 | 1008.7 |
| 20260509124549 | 42 | 170 | 0.0 | 0.0 | 0.04 | 0.13 | 0.13 | 22 | 1009.0 |
| 20260509123051 | 42 | 170 | 0.0 | 0.0 | 0.02 | 0.11 | 0.11 | 23 | 1009.2 |
| 20260509121545 | 41 | 170 | 0.0 | 0.0 | 0.02 | 0.10 | 0.10 | 24 | 1009.2 |
| 20260509120044 | 41 | 170 | 0.0 | 0.0 | 0.01 | 0.09 | 0.09 | 25 | 1009.2 |
| 20260509114544 | 40 | 170 | 0.0 | 0.0 | 0.01 | 0.09 | 0.09 | 27 | 1009.3 |
| 20260509113042 | 40 | 170 | 0.0 | 1.0 | 0.01 | 0.09 | 0.09 | 28 | 1009.3 |
| 20260509111539 | 39 | 170 | 0.0 | 0.0 | 0.00 | 0.08 | 0.08 | 30 | 1009.2 |
| 20260509110038 | 39 | 170 | 0.0 | 2.0 | 0.00 | 0.08 | 0.08 | 31 | 1009.1 |
| 20260509104538 | 39 | 170 | 0.0 | 0.0 | 0.01 | 0.08 | 0.08 | 32 | 1009.1 |
| 20260509103034 | 38 | 170 | 0.0 | 0.0 | 0.01 | 0.08 | 0.08 | 34 | 1008.9 |
| 20260509101538 | 38 | 170 | 0.0 | 1.0 | 0.02 | 0.08 | 0.08 | 35 | 1008.8 |
| 20260509100035 | 38 | 170 | 0.0 | 1.0 | 0.02 | 0.08 | 0.08 | 37 | 1008.8 |
| 20260509094532 | 38 | 170 | 0.0 | 1.0 | 0.01 | 0.07 | 0.07 | 40 | 1009.0 |
| 20260509093031 | 38 | 136 | 0.0 | 3.0 | 0.01 | 0.07 | 0.07 | 40 | 1009.1 |
| 20260509091529 | 37 | 173 | 0.0 | 3.0 | 0.00 | 0.06 | 0.06 | 41 | 1009.4 |
| 20260509090029 | 37 | 161 | 0.0 | 0.0 | 0.00 | 0.06 | 0.06 | 40 | 1009.4 |
| 20260509084534 | 37 | 161 | 0.0 | 0.0 | 0.00 | 0.06 | 0.06 | 39 | 1009.6 |
| 20260509083034 | 37 | 161 | 0.0 | 0.0 | 0.00 | 0.06 | 0.06 | 40 | 1009.6 |
| 20260509081528 | 36 | 161 | 0.0 | 0.0 | 0.00 | 0.06 | 0.06 | 41 | 1009.7 |
| 20260509080034 | 36 | 161 | 0.0 | 0.0 | 0.00 | 0.06 | 0.06 | 41 | 1009.7 |
| 20260509074524 | 36 | 161 | 0.0 | 0.0 | 0.00 | 0.06 | 0.06 | 44 | 1009.6 |
| 20260509073021 | 36 | 161 | 0.0 | 0.0 | 0.00 | 0.06 | 0.06 | 45 | 1009.6 |
| 20260509071520 | 35 | 161 | 0.0 | 0.0 | 0.00 | 0.06 | 0.06 | 46 | 1009.6 |
| 20260509070120 | 35 | 161 | 0.0 | 0.0 | 0.00 | 0.06 | 0.06 | 50 | 1009.7 |
| 20260509064521 | 35 | 161 | 0.0 | 0.0 | 0.00 | 0.06 | 0.06 | 53 | 1009.7 |
| 20260509063013 | 35 | 161 | 0.0 | 0.0 | 0.00 | 0.06 | 0.06 | 56 | 1009.9 |
| 20260509061512 | 35 | 161 | 0.0 | 0.0 | 0.00 | 0.06 | 0.06 | 58 | 1010.1 |
| 20260509060010 | 36 | 161 | 0.0 | 0.0 | 0.00 | 0.06 | 0.06 | 60 | 1010.2 |
| 20260509054507 | 36 | 161 | 0.0 | 0.0 | 0.00 | 0.06 | 0.06 | 62 | 1010.2 |
| 20260509053003 | 37 | 161 | 0.0 | 0.0 | 0.00 | 0.06 | 0.06 | 64 | 1010.4 |
| 20260509051503 | 38 | 161 | 0.0 | 0.0 | 0.00 | 0.06 | 0.06 | 66 | 1010.6 |
| 20260509050136 | 38 | 161 | 0.0 | 0.0 | 0.00 | 0.06 | 0.06 | 67 | 1010.5 |
| 20260509044603 | 39 | 161 | 0.0 | 0.0 | 0.00 | 0.06 | 0.06 | 67 | 1010.7 |
| 20260509043025 | 39 | 161 | 0.0 | 0.0 | 0.00 | 0.06 | 0.06 | 68 | 1010.8 |
| 20260509041529 | 40 | 161 | 0.0 | 0.0 | 0.00 | 0.06 | 0.06 | 67 | 1010.7 |
| 20260509040022 | 39 | 161 | 0.0 | 0.0 | 0.00 | 0.06 | 0.06 | 69 | 1010.5 |
| 20260509034521 | 39 | 161 | 0.0 | 0.0 | 0.00 | 0.06 | 0.06 | 70 | 1010.5 |
| 20260509033021 | 40 | 161 | 0.0 | 0.0 | 0.00 | 0.06 | 0.06 | 71 | 1010.7 |
| 20260509031525 | 40 | 161 | 0.0 | 2.0 | 0.00 | 0.06 | 0.06 | 71 | 1010.6 |
| 20260509030033 | 40 | 291 | 0.0 | 0.0 | 0.00 | 0.06 | 0.06 | 72 | 1010.6 |
| 20260509024518 | 40 | 163 | 0.0 | 0.0 | 0.00 | 0.06 | 0.06 | 72 | 1010.8 |
| 20260509023025 | 39 | 340 | 0.0 | 0.0 | 0.00 | 0.06 | 0.06 | 73 | 1010.8 |
| 20260509021516 | 39 | 340 | 0.0 | 0.0 | 0.00 | 0.06 | 0.06 | 74 | 1010.7 |
| 20260509020018 | 39 | 340 | 0.0 | 0.0 | 0.00 | 0.06 | 0.06 | 74 | 1010.7 |
| 20260509014511 | 39 | 340 | 0.0 | 0.0 | 0.00 | 0.06 | 0.06 | 74 | 1010.5 |
| 20260509013013 | 39 | 340 | 0.0 | 0.0 | 0.00 | 0.06 | 0.06 | 74 | 1010.3 |
| 20260509011510 | 40 | 340 | 0.0 | 0.0 | 0.00 | 0.06 | 0.06 | 74 | 1010.2 |
| 20260509010012 | 41 | 338 | 0.0 | 0.0 | 0.00 | 0.06 | 0.06 | 73 | 1010.0 |
| 20260509004520 | 42 | 298 | 0.0 | 0.0 | 0.00 | 0.06 | 0.06 | 71 | 1009.7 |
| 20260509003006 | 43 | 302 | 0.0 | 0.0 | 0.00 | 0.06 | 0.06 | 70 | 1009.4 |
| 20260509001507 | 44 | 261 | 0.0 | 1.0 | 0.00 | 0.06 | 0.06 | 67 | 1009.2 |
| 20260509000004 | 45 | 263 | 0.0 | 2.0 | 0.00 | 0.06 | 0.06 | 64 | 1009.2 |
| 20260508234501 | 47 | 288 | 0.0 | 1.0 | 0.00 | 0.06 | 0.06 | 60 | 1009.1 |
| 20260508233002 | 48 | 259 | 1.0 | 3.0 | 0.00 | 0.06 | 0.06 | 53 | 1008.9 |
| 20260508231600 | 50 | 319 | 1.0 | 3.0 | 0.00 | 0.06 | 0.06 | 50 | 1008.8 |
| 20260508230107 | 51 | 5 | 3.0 | 5.0 | 0.00 | 0.06 | 0.06 | 47 | 1008.8 |
| 20260508224556 | 51 | 5 | 1.0 | 4.0 | 0.00 | 0.06 | 0.06 | 47 | 1008.9 |
| 20260508223056 | 51 | 360 | 2.0 | 6.0 | 0.00 | 0.06 | 0.06 | 48 | 1008.8 |
| 20260508221559 | 52 | 5 | 3.0 | 8.0 | 0.00 | 0.06 | 0.06 | 47 | 1008.9 |
| 20260508220054 | 51 | 5 | 5.0 | 15.0 | 0.00 | 0.06 | 0.06 | 49 | 1008.9 |
| 20260508214550 | 51 | 5 | 1.0 | 6.0 | 0.00 | 0.06 | 0.06 | 51 | 1008.8 |
| 20260508213049 | 51 | 5 | 1.0 | 10.0 | 0.00 | 0.06 | 0.06 | 51 | 1008.8 |
| 20260508211547 | 50 | 5 | 7.0 | 12.0 | 0.00 | 0.06 | 0.06 | 54 | 1008.9 |
| 20260508210047 | 50 | 5 | 2.0 | 10.0 | 0.00 | 0.06 | 0.06 | 54 | 1008.9 |
| 20260508204515 | 49 | 62 | 1.0 | 15.0 | 0.00 | 0.06 | 0.06 | 57 | 1008.9 |
| 20260508203014 | 49 | 211 | 3.0 | 12.0 | 0.00 | 0.06 | 0.06 | 62 | 1008.8 |
| 20260508201508 | 48 | 5 | 2.0 | 9.0 | 0.00 | 0.06 | 0.06 | 61 | 1008.9 |
| 20260508200010 | 49 | 289 | 5.0 | 11.0 | 0.00 | 0.06 | 0.06 | 65 | 1009.0 |
| 20260508194626 | 47 | 163 | 2.0 | 6.0 | 0.00 | 0.06 | 0.06 | 72 | 1009.2 |
| 20260508193107 | 46 | 288 | 4.0 | 10.0 | 0.00 | 0.06 | 0.06 | 71 | 1009.4 |
| 20260508191600 | 46 | 351 | 0.0 | 8.0 | 0.00 | 0.06 | 0.06 | 71 | 1009.6 |
| 20260508190056 | 46 | 285 | 5.0 | 12.0 | 0.00 | 0.06 | 0.06 | 69 | 1009.7 |
| 20260508184554 | 46 | 299 | 1.0 | 6.0 | 0.00 | 0.06 | 0.06 | 70 | 1009.6 |
| 20260508183051 | 46 | 160 | 2.0 | 10.0 | 0.00 | 0.06 | 0.06 | 72 | 1009.7 |
| 20260508181527 | 45 | 315 | 1.0 | 8.0 | 0.00 | 0.06 | 0.06 | 73 | 1009.9 |
| 20260508180019 | 45 | 190 | 0.0 | 5.0 | 0.00 | 0.06 | 0.06 | 73 | 1009.7 |
| 20260508174510 | 44 | 219 | 1.0 | 7.0 | 0.00 | 0.06 | 0.06 | 73 | 1009.6 |
| 20260508173015 | 43 | 198 | 4.0 | 9.0 | 0.00 | 0.06 | 0.06 | 72 | 1009.9 |
| 20260508171508 | 43 | 203 | 1.0 | 11.0 | 0.01 | 0.06 | 0.06 | 61 | 1009.9 |
| 20260508170001 | 42 | 108 | 2.0 | 8.0 | 0.02 | 0.06 | 0.06 | 48 | 1010.2 |
| 20260508164528 | 41 | 349 | 3.0 | 7.0 | 0.03 | 0.06 | 0.06 | 51 | 1010.3 |
| 20260508163026 | 40 | 237 | 1.0 | 3.0 | 0.06 | 0.06 | 0.06 | 50 | 1010.4 |
| 20260508161528 | 40 | 336 | 0.0 | 3.0 | 0.05 | 0.05 | 0.05 | 57 | 1010.6 |
| 20260508160027 | 39 | 338 | 3.0 | 8.0 | 0.04 | 0.04 | 0.04 | 65 | 1010.6 |
| 20260508154515 | 41 | 261 | 2.0 | 6.0 | 0.03 | 0.03 | 0.03 | 68 | 1010.4 |
| 20260508153013 | 40 | 360 | 2.0 | 6.0 | 0.00 | 0.00 | 0.00 | 83 | 1010.3 |
| 20260508151541 | 41 | 278 | 1.0 | 8.0 | 0.00 | 0.00 | 0.00 | 79 | 1010.2 |